AMC-3

Last updated on Thu Oct 30 2025 00:02:47 GMT+0000 (Coordinated Universal Time)

1 24936U 97050A 25302.32066520 -.00000248 00000+0 00000+0 0 9994 2 24936 7.5775 66.6943 0002768 154.6173 220.0614 1.00271723 50127
UTC large
Height (km)
Speed (km/s)
/
Latitude / Longitude
Inclination (degrees)
Orbital Period (minutes)
Azimuth
Elevation
Range (km)
Doppler Factor

Next 0 passes for location: London (51.5072 / 0.1276)

Sorry there are no passes over London.